Regional Weather Roundup
Issued by NWS Newport/Morehead, NC

Current Version | Previous Version | Text Only | Print | Product List | Glossary On
Versions: 1 2 3 4 5 6 7 8 9 10 11 12 13 14 15 16 17 18 19 20 21 22 23 24 25 26 27 28 29 30 31 32 33 34 35 36 37 38 39 40 41 42 43 44 45 46 47 48 49 50
958
ASUS42 KMHX 090725
RWRMHX
WEATHER ROUNDUP FOR EASTERN NORTH CAROLINA
NATIONAL WEATHER SERVICE NEWPORT/MOREHEAD CITY NC
200 AM EST TUE FEB 09 2016

NOTE: "FAIR" INDICATES FEW OR NO CLOUDS BELOW 12,000 FEET
WITH NO SIGNIFICANT WEATHER AND/OR OBSTRUCTIONS TO VISIBILITY

NCZ015>017-031-032-045>047-102-103-090800-
NORTH COAST

CITY           SKY/WX    TMP DP  RH WIND       PRES   REMARKS
EDENTON        CLOUDY    42  41  96 CALM      29.57F
ELIZABETH CITY PTCLDY    40  38  93 W6        29.56F
KITTY HAWK     CLOUDY    41  37  88 CALM      29.55F FOG
MANTEO         CLOUDY    42  41  97 SW3       29.57R

$$

NCZ045>047-081-094-103-104-090800-
CENTRAL COAST

CITY           SKY/WX    TMP DP  RH WIND       PRES   REMARKS
FRISCO         CLOUDY    45  38  76 VRB3      29.60S
SWANQUARTER      N/A     43 N/A N/A SW1       29.56S

$$

NCZ095-097-098-100-101-090800-
SOUTHERN COAST

CITY           SKY/WX    TMP DP  RH WIND       PRES   REMARKS
BEAUFORT       CLOUDY    45  38  76 W8        29.60S
CEDAR ISLAND     N/A     43 N/A N/A SW3       29.65S
JACKSONVILLE   CLOUDY    44  40  85 W10       29.60S
PINEY ISLAND   CLOUDY   N/A N/A N/A SW3       29.59S
WILMINGTON     CLOUDY    46  40  79 W10       29.63R


$$

NCZ011>013-027>030-043-044-078>080-089-090>093-098-090800-
COASTAL PLAIN

CITY           SKY/WX    TMP DP  RH WIND       PRES   REMARKS
AHOSKIE        MOCLDY    36  35  97 CALM      29.57F
CLINTON        PTCLDY    40  40 100 W5        29.63R
ELIZABETHTOWN  PTCLDY    41  39  95 W5        29.63S
GOLDSBORO      CLOUDY    39  39 100 W7        29.59F
GREENVILLE     MOCLDY    39  39 100 CALM      29.61F
HAVELOCK       CLOUDY    44  39  82 W10       29.60S
KENANSVILLE    CLOUDY    40  39  99 SW5       29.62S
KINSTON        CLOUDY    39  39  99 CALM      29.61R
NEW BERN       CLOUDY    42  38  85 W6        29.60F
RICHLANDS      CLOUDY    43  36  75 W3        29.61S
ROCKY MOUNT    CLOUDY    39  39 100 W5        29.59F FOG
WASHINGTON     CLOUDY    39  38  94 CALM      29.58F
WHITEVILLE     PTCLDY    42  40  91 W3        29.63S

$$

AMZ130-135-150-152-154-156-158-170-250-252-270-ANZ085-086-088-633-658-670-090800-
MARINE OBSERVATIONS

STATION/POSITION TIME  TEMP    WIND        PRES    WAVE   SWELL
                       AIR SEA DIR/SP/G            HT/PER HT/PER
                 (UTC) (F)     (DEG/KT/KT) (MB)    (FT/S) (FT/S)
CHESAPEAKE LIGHT 0700   45     100/  9/ 10 1001.7
64 E VA BEACH    0650   49 52  100/ 14/ 17 1000.5   13/13  11/13
DUCK             0700   45     160/  3/  4  999.8
2 E DUCK         0711      44                N/A    10/14   8/14
OREGON INLET     0700   43 45  200/  3/  3 1001.2
13E OREGON INLT  0700      47                N/A    13/15  11/15
HATTERAS CG      0700   46 53  290/ 13/ 15 1001.2
DIAMOND BUOY     0650   48 73  320/ 10/ 14 1002.0   11/15  11/15
CAPE LOOKOUT     NOT AVBL
BEAUFORT LAB     0700   46 47  290/  4/  8 1001.1
30 SE NEW RVR IN 0708   52 61              1002.4
30 SE NEW RVR IN 0625      61                N/A     7/ 8   3/15
27 SE WRIGHTSVLE 0708   51 60  290/ 17/ 25 1002.3
5 SE WRIGHTSVLE  0608   49 51  270/ 16/ 19 1003.1
225 S CAPE HAT   0650   63 69  240/ 25/ 29   N/A    12/ 8   7/15
41 SE CHARLESTON 0650   53 65  290/ 27/ 31 1005.3    7/ 8   5/ 8

$$




USA.gov is the U.S. government's official web portal to all federal, state and local government web resources and services.